Temp
98 98 96 95 94 91 93 91 90 94 92 89 89 90 90 90 91 89 88 88 87 88 87 87 87 87 91 92 92 91 83 84 79 86 89 92 87 86 89 90 91 91 91
98 97 97 95 94 96 94 95 93 91 93 90 89 88 89 89 90 89 88 89 88 86 87 87 87 91 86 88 91 86 86 82 76 73 77 84 82 82 84 85 89 95 95
99 99 98 97 96 95 97 97 95 92 91 95 91 88 88 90 89 89 88 88 88 87 87 87 86 85 83 88 84 85 88 86 86 83 80 85 85 85 82 84 86 90 93
103 101 99 98 99 98 97 97 98 94 91 92 93 91 90 90 91 90 89 88 88 88 87 86 86 84 83 82 84 82 83 82 85 85 85 84 83 84 82 79 81 89 91
98 98 98 98 99 98 95 94 95 94 92 91 90 91 90 91 93 90 89 89 87 85 86 86 86 83 75 78 84 84 80 83 85 84 84 85 84 83 81 84 81 82 84
93 95 94 93 93 93 92 91 90 90 89 89 90 89 89 93 75 75 81 91 87 85 85 86 86 77 75 73 71 72 73 77 77 81 81 81 77 80 83 82 81 81 79
90 90 90 89 88 89 90 88 87 87 89 88 89 89 89 90 70 71 74 93 88 88 85 85 86 92 82 85 73 70 70 69 69 76 75 77 76 78 77 75 76 76 78
88 88 89 88 88 88 87 86 86 88 88 88 87 87 87 82 69 69 73 88 88 88 87 85 82 85 83 80 83 84 84 84 82 83 81 81 80 80 77 76 75 74 79
87 87 87 88 87 87 86 86 87 87 78 73 73 74 79 80 67 69 72 86 87 85 85 83 83 84 62 66 77 79 80 82 80 69 69 68 67 67 69 76 76 77 77
88 88 88 88 87 86 86 85 86 82 74 71 72 73 73 75 60 63 70 88 86 87 85 83 66 71 60 60 73 76 74 78 79 80 80 77 72 77 66 74 77 75 76
89 88 87 87 86 85 85 85 79 77 76 73 71 73 75 71 65 59 60 82 85 86 86 86 76 59 58 58 57 72 71 66 71 74 77 80 81 82 83 84 82 80 77
87 84 85 85 87 86 81 79 78 77 75 74 76 73 73 69 62 59 59 60 62 80 80 82 76 57 57 57 62 58 59 61 74 77 78 78 78 78 78 73 72 75 78
84 84 83 82 83 81 79 76 79 80 81 79 75 79 75 77 73 59 59 60 61 76 76 64 60 58 58 63 61 60 59 75 74 73 73 74 76 75 73 73 74 73 72
81 79 77 76 75 79 83 84 84 84 84 83 79 75 78 78 77 77 77 75 63 70 67 74 67 63 59 65 69 71 73 72 69 70 70 71 73 73 72 71 70 71 71
74 73 74 75 76 67 63 72 74 64 74 79 78 81 79 77 68 56 59 73 71 64 60 76 75 73 71 71 70 70 69 69 67 66 66 67 67 69 70 70 67 66 65
72 76 77 75 73 68 63 57 51 50 49 49 49 66 64 53 48 47 46 48 49 50 69 72 71 69 67 68 68 67 67 64 66 64 64 63 61 61 63 64 62 62 61
76 75 74 70 68 69 68 61 61 55 49 47 47 47 48 48 46 46 47 49 51 55 71 69 68 68 68 68 68 68 68 68 65 65 62 60 59 58 57 55 55 55 56
70 60 67 67 65 67 68 68 71 73 71 65 50 53 46 45 45 46 48 50 67 67 70 69 69 69 69 69 70 70 69 70 69 66 63 61 60 57 55 53 52 52 53
66 68 65 69 72 71 75 76 78 74 71 68 64 57 52 46 46 48 51 72 71 71 71 71 70 70 70 70 69 69 69 70 69 68 67 63 58 53 50 50 50 49 49
70 64 71 76 74 74 75 75 73 70 71 71 71 69 67 59 67 69 70 71 72 71 71 70 70 70 69 69 69 69 70 70 70 70 69 67 59 51 48 48 48 48 49
72 71 67 73 75 75 74 74 73 72 72 71 70 63 45 71 70 70 70 71 72 71 69 69 69 69 70 69 69 69 70 70 70 69 69 68 66 59 52 49 48 48 48
73 73 73 73 73 73 73 72 73 72 71 69 67 62 50 71 71 70 70 71 71 71 71 70 70 70 70 69 68 69 69 69 69 68 67 68 71 68 62 57 53 52 51
71 72 71 71 70 64 70 72 71 71 70 70 70 69 70 71 71 71 70 71 71 71 71 71 69 69 70 70 71 69 69 67 66 66 66 67 71 70 71 67 57 53 52
69 71 70 70 70 70 70 68 68 62 69 69 70 70 71 71 71 67 70 71 71 72 72 70 69 67 67 68 70 70 68 59 57 64 65 68 72 68 71 70 68 61 55
68 68 69 69 68 68 68 68 68 69 70 70 69 70 70 70 70 70 71 71 70 70 69 69 70 67 66 66 66 64 48 35 45 43 63 71 71 70 71 71 70 69 65
69 70 70 69 68 68 68 68 68 68 68 69 70 70 71 71 71 71 70 70 69 69 68 70 69 66 66 68 64 45 35 34 44 34 52 73 71 71 71 71 70 70 69
MSLP
1006.31 1006.73 1007.55 1008.19 1008.81 1009.41 1009.60 1009.96 1010.28 1010.47 1010.79 1011.28 1011.68 1011.96 1011.99 1012.19 1012.29 1012.41 1012.43 1012.41 1012.62 1012.37 1012.34 1012.37 1012.61 1012.83 1012.35 1012.28 1012.34 1012.35 1012.73 1012.96 1012.46 1011.66 1011.55 1010.92 1011.09 1011.22 1010.81 1010.43 1010.03 1009.83 1009.56
1005.13 1005.86 1006.47 1007.19 1007.72 1008.08 1008.53 1008.81 1009.33 1009.70 1010.15 1010.65 1011.11 1011.45 1011.70 1011.81 1011.89 1012.04 1012.09 1012.17 1012.19 1012.30 1012.29 1012.15 1012.10 1012.30 1012.73 1012.24 1012.14 1012.47 1012.46 1013.00 1012.95 1012.40 1012.34 1011.93 1011.66 1011.43 1011.06 1010.46 1009.91 1008.93 1008.33
1004.20 1004.85 1005.42 1006.03 1006.63 1006.92 1007.24 1007.87 1008.43 1009.13 1009.58 1009.83 1010.42 1010.74 1011.03 1011.25 1011.44 1011.61 1011.77 1011.83 1011.88 1012.08 1012.27 1012.22 1012.24 1012.26 1011.94 1011.86 1012.38 1012.34 1012.07 1012.17 1012.03 1011.77 1011.68 1011.41 1011.26 1011.17 1010.97 1010.36 1009.58 1008.61 1008.23
1002.89 1003.69 1004.21 1004.78 1005.24 1005.77 1006.36 1006.94 1007.47 1008.21 1009.02 1009.38 1009.63 1010.05 1010.44 1010.73 1010.99 1011.22 1011.38 1011.62 1011.74 1012.07 1012.39 1012.61 1012.42 1012.48 1012.60 1012.42 1012.15 1012.57 1012.49 1012.40 1011.64 1011.37 1010.97 1010.92 1011.00 1010.61 1010.69 1010.30 1009.45 1008.24 1007.34
1002.05 1002.73 1003.09 1003.61 1003.97 1004.72 1005.58 1006.30 1006.97 1007.59 1008.52 1008.97 1009.10 1009.53 1010.00 1010.30 1010.41 1010.76 1011.11 1011.26 1011.64 1012.03 1012.33 1012.56 1012.69 1012.76 1012.96 1012.58 1012.05 1011.83 1012.34 1012.07 1011.62 1011.08 1010.69 1010.23 1009.99 1010.11 1010.02 1009.88 1009.74 1009.08 1008.34
1001.58 1001.73 1002.51 1003.22 1003.64 1004.23 1004.99 1005.92 1006.75 1007.36 1008.05 1008.61 1008.86 1009.22 1009.78 1010.03 1010.17 1010.81 1011.01 1010.78 1011.40 1011.92 1012.06 1012.24 1012.29 1012.77 1013.02 1012.47 1012.80 1012.62 1012.55 1012.34 1012.03 1011.28 1010.99 1010.48 1010.61 1010.34 1010.20 1009.91 1009.71 1008.84 1007.95
1001.40 1001.88 1001.94 1002.41 1003.23 1003.74 1004.51 1005.47 1006.31 1006.97 1007.53 1007.93 1008.81 1009.75 1010.01 1010.01 1010.81 1011.20 1011.44 1010.71 1011.36 1011.50 1011.86 1011.93 1011.93 1011.54 1012.35 1012.33 1012.53 1012.53 1012.49 1012.21 1012.20 1012.10 1011.44 1011.18 1010.75 1010.77 1010.81 1010.48 1009.83 1009.50 1008.72
1000.21 1000.80 1001.53 1002.21 1002.90 1003.68 1004.32 1005.01 1005.81 1006.60 1007.50 1008.85 1009.97 1010.39 1010.86 1011.48 1011.77 1011.82 1011.74 1011.11 1010.99 1011.15 1011.47 1011.72 1011.88 1011.84 1012.08 1012.28 1011.99 1011.55 1011.27 1011.12 1011.15 1011.25 1010.92 1010.86 1010.90 1010.90 1011.02 1010.65 1010.20 1009.51 1008.61
999.23 999.32 1000.09 1001.42 1002.46 1003.17 1003.93 1004.46 1005.25 1006.16 1007.52 1009.04 1010.22 1012.45 1012.37 1011.97 1011.54 1011.87 1011.95 1011.37 1011.06 1011.25 1011.58 1011.66 1011.50 1011.49 1012.64 1012.52 1012.17 1011.47 1010.99 1010.62 1010.10 1010.47 1010.89 1011.07 1010.95 1010.91 1010.75 1010.54 1009.48 1008.35 1007.16
998.73 999.40 999.96 1000.46 1001.26 1002.30 1003.23 1004.09 1004.40 1005.80 1006.96 1007.20 1006.44 1008.24 1010.33 1011.83 1012.11 1011.75 1011.72 1010.88 1010.67 1010.88 1010.83 1011.25 1011.77 1012.30 1012.85 1013.06 1012.56 1011.81 1011.26 1010.65 1010.39 1010.31 1010.22 1010.45 1009.85 1009.42 1009.45 1009.54 1008.98 1007.91 1006.97
998.51 999.08 999.71 1000.24 1000.57 1001.64 1002.86 1003.95 1005.01 1005.69 1006.75 1007.04 1007.84 1008.88 1010.88 1011.48 1012.09 1011.95 1011.73 1011.13 1010.93 1010.75 1010.38 1010.27 1011.81 1013.01 1013.34 1013.49 1013.20 1012.42 1012.08 1012.25 1011.46 1010.71 1009.85 1009.11 1008.70 1008.23 1007.93 1007.66 1007.41 1007.18 1006.54
998.32 998.97 999.93 1000.41 1000.99 1001.55 1003.03 1004.27 1005.32 1006.24 1007.00 1007.17 1008.62 1009.10 1010.24 1012.01 1012.10 1011.99 1012.15 1012.12 1012.49 1011.36 1010.87 1010.85 1011.66 1012.60 1012.92 1012.68 1012.52 1012.66 1012.41 1012.15 1010.91 1009.66 1008.59 1008.04 1007.94 1007.57 1007.48 1007.76 1007.78 1007.34 1006.74
998.48 999.18 1000.08 1001.20 1001.85 1003.01 1003.23 1004.57 1005.05 1005.85 1006.68 1007.26 1008.22 1008.79 1010.05 1011.00 1011.90 1012.42 1012.29 1012.46 1012.52 1011.72 1011.99 1012.36 1012.64 1012.45 1012.28 1011.85 1012.07 1011.98 1011.77 1010.13 1010.20 1009.72 1008.79 1008.32 1008.34 1008.49 1008.65 1008.07 1007.58 1007.31 1006.93
998.95 999.78 1000.75 1001.46 1002.93 1002.76 1004.07 1004.65 1005.59 1006.11 1006.34 1007.04 1007.75 1008.83 1009.95 1010.86 1011.24 1011.54 1011.96 1012.00 1012.09 1012.20 1012.24 1011.59 1011.76 1011.85 1011.76 1011.73 1011.31 1010.87 1010.84 1010.83 1010.87 1010.47 1009.74 1009.31 1008.95 1008.34 1007.77 1007.59 1007.15 1006.70 1006.19
1000.06 1000.87 1001.57 1001.69 1003.54 1004.15 1005.92 1006.47 1007.28 1008.43 1007.08 1007.66 1008.64 1009.38 1010.30 1011.12 1012.60 1012.92 1012.63 1011.98 1012.25 1012.48 1012.38 1011.14 1011.10 1011.12 1011.23 1011.14 1010.94 1011.30 1011.18 1011.10 1010.94 1010.84 1010.54 1009.95 1009.21 1008.60 1007.95 1007.76 1007.66 1007.26 1006.39
1000.71 1001.33 1002.01 1002.75 1003.79 1004.80 1006.32 1008.98 1009.45 1009.45 1009.39 1010.64 1010.26 1010.18 1011.75 1012.60 1013.21 1013.27 1013.45 1013.36 1013.24 1012.58 1011.89 1011.28 1011.04 1011.21 1011.47 1011.50 1011.33 1010.79 1011.02 1011.25 1011.08 1011.17 1010.72 1010.22 1009.86 1009.55 1008.88 1008.51 1008.28 1007.56 1006.63
1001.27 1002.77 1003.62 1003.72 1004.22 1004.41 1005.47 1007.41 1009.79 1011.29 1011.16 1011.99 1012.25 1012.31 1012.22 1013.07 1013.76 1014.02 1013.78 1013.31 1013.05 1012.36 1011.86 1011.83 1011.39 1011.28 1011.26 1011.18 1011.06 1010.55 1010.16 1010.60 1011.16 1010.82 1010.61 1010.43 1010.14 1009.71 1009.48 1008.96 1008.44 1007.93 1007.10
1002.98 1004.44 1005.00 1005.43 1005.95 1006.02 1006.55 1006.42 1006.39 1008.33 1010.79 1011.79 1012.96 1013.00 1013.83 1014.12 1014.35 1014.21 1013.74 1013.58 1012.54 1011.95 1011.85 1011.70 1011.43 1011.45 1011.42 1010.91 1011.13 1010.40 1010.70 1010.22 1010.07 1010.07 1010.09 1009.92 1009.85 1009.69 1009.34 1008.83 1008.25 1007.68 1007.03
1003.68 1004.86 1005.13 1006.31 1006.50 1006.57 1006.51 1006.48 1006.91 1008.57 1009.88 1011.25 1012.73 1013.38 1014.30 1014.64 1014.51 1014.02 1013.36 1012.22 1011.80 1011.78 1011.87 1011.63 1011.39 1011.17 1011.33 1011.91 1011.63 1011.07 1010.56 1010.05 1009.88 1009.53 1009.25 1009.26 1009.62 1009.69 1009.23 1008.71 1008.11 1007.67 1007.08
1004.53 1005.06 1004.93 1005.66 1006.81 1007.63 1006.78 1007.54 1008.36 1009.08 1010.03 1010.77 1011.26 1012.26 1013.44 1014.40 1013.41 1013.10 1012.70 1012.42 1012.21 1011.80 1011.95 1011.58 1011.63 1011.62 1011.64 1011.86 1011.96 1011.26 1010.29 1009.96 1009.56 1009.21 1009.04 1008.82 1009.20 1009.24 1008.77 1008.34 1007.79 1007.18 1006.56
1005.76 1006.08 1005.94 1005.41 1005.75 1007.58 1008.18 1008.32 1008.77 1009.08 1010.09 1010.33 1011.28 1012.68 1013.70 1012.73 1012.61 1012.51 1012.31 1012.54 1012.39 1012.29 1012.42 1012.33 1011.73 1011.83 1011.83 1011.74 1012.10 1011.44 1010.48 1010.08 1009.71 1009.27 1008.92 1008.38 1007.84 1007.67 1007.73 1007.54 1007.01 1006.37 1005.89
1005.95 1006.15 1006.29 1005.93 1007.82 1008.53 1008.83 1008.91 1009.21 1009.79 1010.32 1011.15 1012.44 1013.43 1013.46 1012.43 1012.39 1012.26 1012.25 1012.21 1012.24 1012.31 1012.42 1012.69 1011.95 1012.14 1011.99 1012.06 1012.08 1011.64 1010.86 1010.25 1009.97 1009.63 1009.34 1008.45 1006.82 1006.52 1006.42 1006.54 1006.08 1005.40 1004.86
1005.87 1006.90 1007.42 1008.27 1009.25 1009.42 1009.32 1009.77 1009.90 1010.44 1011.01 1011.59 1012.04 1012.48 1012.32 1012.15 1012.23 1012.24 1012.43 1012.19 1012.30 1012.41 1012.67 1012.70 1012.28 1012.30 1012.09 1012.18 1012.00 1011.89 1011.32 1011.02 1010.87 1010.44 1009.61 1008.58 1006.81 1006.52 1005.52 1005.41 1005.56 1005.07 1004.36
1007.09 1007.92 1008.32 1009.12 1009.60 1009.52 1009.89 1010.69 1011.34 1011.54 1011.54 1011.96 1012.27 1012.43 1012.45 1012.28 1012.28 1012.74 1012.68 1012.74 1012.56 1012.47 1012.67 1012.79 1012.37 1012.47 1012.41 1012.39 1012.13 1012.12 1011.92 1012.42 1011.97 1010.66 1009.95 1008.39 1006.95 1006.48 1005.45 1004.90 1004.60 1004.55 1004.30
1008.73 1009.00 1009.63 1009.72 1010.10 1010.45 1010.79 1011.32 1011.56 1011.59 1011.81 1012.09 1012.30 1012.37 1012.26 1012.48 1012.45 1012.82 1013.01 1012.73 1013.35 1012.92 1012.58 1012.80 1012.34 1012.19 1012.34 1012.60 1012.58 1012.65 1012.97 1012.98 1012.22 1011.44 1009.80 1008.23 1007.34 1006.51 1005.59 1004.85 1004.35 1003.72 1003.56
1009.18 1009.68 1010.11 1010.28 1010.39 1010.73 1011.15 1011.45 1011.48 1011.64 1011.92 1011.95 1011.87 1011.98 1012.01 1012.00 1012.31 1012.80 1013.19 1012.85 1012.85 1012.94 1012.62 1012.35 1012.18 1012.32 1012.36 1012.17 1012.72 1013.15 1012.96 1012.55 1011.73 1010.91 1009.92 1007.91 1007.21 1006.53 1005.79 1004.87 1004.38 1003.63 1003.07
Wind_Speed
19 18 17 16 17 16 15 15 15 14 12 11 10 10 10 9 8 8 8 7 8 6 6 4 3 0 4 5 4 5 3 6 9 10 11 11 6 9 10 10 10 11 10
19 18 18 17 16 17 17 17 15 15 13 12 11 11 10 10 10 9 9 7 8 7 6 5 4 1 3 2 4 5 7 6 5 9 8 10 12 11 12 13 10 11 11
19 20 19 19 18 18 18 17 16 14 14 14 13 12 12 11 11 10 9 8 8 7 6 5 4 5 5 1 3 5 6 5 6 6 8 7 9 9 10 12 11 11 10
21 21 20 20 20 19 18 17 16 15 13 13 13 13 13 12 11 10 9 8 8 7 4 4 5 5 4 3 2 3 4 6 5 7 8 8 7 8 7 8 10 11 8
16 20 20 20 19 18 15 14 15 14 12 13 13 12 11 11 9 10 8 9 6 5 6 5 6 2 1 2 3 0 3 6 7 8 9 9 7 9 9 7 9 9 11
17 19 17 15 15 15 14 13 12 13 13 12 12 11 10 8 9 4 7 7 5 7 6 6 5 8 9 6 7 6 5 6 8 8 10 10 10 8 10 8 11 11 11
17 16 16 16 16 16 14 14 14 14 14 13 10 7 8 8 6 5 5 7 7 6 6 5 5 3 2 5 10 8 10 11 11 9 11 12 12 10 10 10 11 11 12
19 18 17 16 15 14 15 15 15 13 10 5 3 2 1 3 4 5 4 7 6 5 4 4 3 4 4 6 9 9 9 8 9 9 11 12 11 10 10 11 12 12 13
20 21 19 16 15 16 16 16 14 13 15 16 14 9 9 2 6 3 4 6 6 5 5 6 6 5 8 4 9 10 11 11 8 9 8 10 12 15 14 10 12 14 13
16 15 15 16 16 17 17 16 16 16 16 11 15 16 10 6 8 5 3 8 6 7 8 7 8 7 10 8 8 10 10 12 12 14 14 14 16 15 21 14 11 13 14
14 12 15 16 17 16 16 15 15 16 15 13 11 11 5 8 7 8 7 6 6 6 6 5 10 11 10 7 6 9 10 11 13 13 13 13 14 14 13 12 13 13 14
11 12 14 15 14 15 17 15 15 13 11 12 13 11 9 7 5 10 12 13 8 5 4 4 4 8 6 7 8 7 9 11 12 13 12 11 12 10 9 8 12 13 14
13 14 14 14 13 14 15 13 13 13 12 12 11 10 8 8 7 9 9 4 4 3 4 4 5 8 10 11 5 7 13 7 10 11 10 10 9 11 13 13 13 14 15
14 13 11 12 11 15 11 10 9 9 10 11 10 8 7 7 6 4 4 5 8 7 4 6 3 7 8 7 5 4 7 7 8 10 10 10 10 10 10 10 10 11 12
13 12 13 13 13 16 16 13 10 11 7 8 6 7 8 7 5 5 6 4 4 3 8 2 3 4 5 5 6 6 7 8 8 9 10 11 11 11 11 10 11 11 12
16 13 13 14 13 14 13 12 23 22 26 19 18 10 10 13 8 7 6 5 2 7 4 2 4 5 5 6 6 6 7 9 8 9 10 10 10 11 12 11 11 11 12
18 16 13 13 13 14 14 13 11 10 19 16 15 17 17 11 6 6 6 5 1 7 3 4 4 5 5 5 6 7 7 8 9 8 9 10 10 11 11 10 10 10 10
16 13 8 8 7 8 7 10 12 11 8 9 9 10 9 7 5 3 3 6 5 3 4 3 4 5 5 6 7 8 8 8 9 9 8 8 9 9 10 10 10 11 10
13 10 9 7 9 6 9 9 10 9 8 9 8 6 5 3 3 4 10 1 3 4 4 4 5 5 6 7 7 7 8 9 9 10 9 8 7 8 10 9 10 14 14
12 11 13 11 10 7 9 8 8 8 8 7 6 7 7 8 6 4 3 3 3 4 3 4 5 5 5 6 7 8 8 9 10 10 11 10 6 6 8 10 9 10 10
10 10 9 10 11 7 6 7 7 7 7 6 6 6 9 2 4 3 4 3 2 4 4 4 4 4 5 6 7 8 9 9 10 11 11 11 10 8 7 8 9 9 10
10 9 9 11 8 7 7 7 7 8 8 8 8 5 8 3 4 4 3 3 3 3 3 3 4 5 5 6 7 9 9 10 11 11 11 13 12 11 7 8 9 8 8
11 11 10 9 9 8 8 7 7 7 7 7 7 7 6 4 3 3 3 3 3 3 3 3 3 4 5 6 7 8 10 11 12 11 11 12 12 13 11 11 10 10 10
12 11 10 8 7 8 8 8 7 6 5 5 5 4 3 3 3 4 2 3 2 1 2 3 3 5 6 7 7 9 9 11 10 10 12 13 11 13 13 13 12 13 10
10 10 9 8 8 8 8 7 6 6 5 4 4 3 3 3 2 1 1 1 3 3 1 3 2 4 4 7 9 13 12 12 12 12 11 14 14 14 14 12 14 12 15
10 9 8 8 8 7 7 6 5 5 4 3 3 2 2 1 1 2 2 2 3 4 3 3 3 5 6 5 10 13 9 13 13 14 11 9 11 11 12 14 17 11 15
Wind_Direction
204 203 205 206 207 212 217 217 221 223 223 222 226 232 230 235 237 237 242 243 244 248 218 227 255 294 321 308 307 278 285 279 285 305 323 313 312 290 292 285 265 250 247
203 205 206 208 209 209 217 216 218 221 219 221 223 226 232 233 233 241 245 242 249 234 243 206 201 221 284 234 283 312 310 323 293 292 302 304 322 322 303 296 281 278 275
199 203 207 205 208 216 214 219 213 218 220 221 215 222 225 226 233 245 243 250 240 232 233 217 187 199 189 248 282 303 306 303 280 268 285 275 304 314 309 302 291 286 273
198 206 205 209 208 212 216 215 216 210 216 220 224 221 228 232 240 243 245 236 235 234 222 225 214 215 223 198 213 284 264 293 300 283 311 315 294 292 279 301 307 307 306
201 204 206 206 208 208 205 210 212 208 207 218 222 224 226 230 229 222 227 232 231 209 207 225 215 230 286 316 284 285 283 286 310 305 304 304 302 331 320 323 284 287 300
206 203 205 202 202 201 196 194 197 201 205 211 219 214 216 230 135 183 269 241 202 201 218 212 211 186 213 196 235 256 294 274 287 298 300 312 296 306 303 320 312 307 304
208 213 206 196 198 192 184 180 189 196 196 203 205 208 222 229 87 148 201 229 200 219 216 228 261 81 311 268 208 222 239 231 242 289 291 293 305 307 314 296 302 311 295
201 202 206 202 195 187 178 179 184 190 190 142 93 68 103 76 118 154 195 245 219 227 235 225 247 279 2 316 297 291 294 284 250 248 264 285 291 301 295 290 285 277 270
210 202 195 188 190 183 183 178 173 158 109 105 97 13 307 144 72 98 244 221 239 228 223 233 240 261 69 8 281 281 286 290 295 214 238 260 259 259 260 283 277 282 287
215 209 192 181 178 180 176 177 162 143 134 148 136 159 175 147 38 32 281 258 231 236 202 218 98 48 34 5 319 308 297 290 298 305 300 279 256 257 228 237 268 275 284
210 198 186 182 174 165 169 164 150 151 148 149 132 118 120 104 77 61 39 255 288 280 279 282 104 51 13 338 307 305 319 330 296 287 280 277 285 287 285 280 282 283 283
191 173 178 163 172 158 156 152 154 141 132 122 139 124 122 136 118 74 59 52 355 297 311 348 15 15 305 287 289 4 309 284 275 275 284 289 287 292 300 352 327 306 295
165 160 160 161 155 153 144 138 139 144 147 149 148 153 143 151 127 117 106 103 55 323 16 9 273 270 268 268 168 296 273 312 321 310 311 309 315 317 307 291 284 287 284
154 152 139 130 126 133 130 137 137 149 151 150 143 146 151 153 152 148 165 171 178 220 187 217 244 258 253 272 291 331 346 340 331 312 318 311 301 302 306 309 308 297 292
115 120 118 110 108 79 60 42 69 44 57 104 129 142 160 162 100 58 22 19 357 29 291 299 347 8 353 3 1 354 348 337 328 323 316 312 313 312 307 314 307 299 296
121 126 121 116 110 94 94 76 43 48 48 41 38 80 70 79 107 102 110 109 285 297 202 33 46 30 14 357 347 0 358 337 332 325 308 314 314 308 308 311 305 297 297
112 115 118 120 123 128 126 123 114 75 69 56 61 66 67 99 114 143 153 144 295 277 69 52 41 29 18 3 351 360 354 1 329 314 312 312 307 303 302 296 296 292 291
85 58 96 102 106 116 122 123 131 134 134 112 67 77 78 90 105 149 220 242 170 127 81 61 40 27 10 13 354 4 2 335 347 335 315 301 308 304 300 294 293 290 287
100 106 112 113 98 127 121 118 102 117 110 106 115 112 111 130 166 227 261 149 88 78 68 57 44 38 28 352 358 348 337 355 337 334 337 340 336 318 302 295 291 289 281
95 101 109 116 115 110 93 98 103 113 134 147 141 130 151 192 186 135 81 68 78 69 56 58 49 32 16 356 337 341 342 343 345 343 346 351 339 291 290 291 287 287 285
92 90 103 103 87 86 113 121 123 122 129 124 110 65 353 236 131 113 110 100 55 59 42 26 39 23 2 360 341 335 345 342 341 341 344 339 335 332 289 279 279 276 276
107 98 89 87 113 129 114 114 118 122 120 122 128 140 272 212 135 129 119 109 86 70 35 351 13 5 11 353 338 340 337 339 339 337 336 324 338 0 1 344 321 304 282
92 95 96 96 98 121 109 110 108 115 125 134 141 160 169 127 115 93 101 78 64 35 27 336 8 353 14 346 345 343 336 342 330 327 321 311 341 351 351 14 1 344 336
96 95 94 104 109 104 99 92 89 77 110 122 133 129 103 81 78 89 33 25 22 9 356 325 12 350 348 345 349 351 6 344 320 306 325 300 346 352 350 3 13 17 3
92 107 117 112 105 103 116 116 123 125 117 120 112 91 86 64 64 73 357 8 316 299 324 306 340 359 349 337 356 351 358 322 306 310 288 311 350 1 352 3 1 16 34
89 96 103 107 108 113 122 128 123 128 128 125 118 112 101 118 154 254 266 257 265 274 294 301 357 342 332 335 14 338 328 326 327 317 309 327 359 352 353 1 1 8 16